COSMOS 2547 [GLONASS-K]

Last updated on Wed Nov 25 2020 00:02:02 GMT+0000 (Coordinated Universal Time)

1 46805U 20075A 20328.95604139 -.00000045 00000-0 00000-0 0 9999 2 46805 64.7973 260.7849 0007572 232.4414 128.7808 2.13146551 628
UTC large
Height (km)
Speed (km/s)
/
Latitude / Longitude
Inclination (degrees)
Orbital Period (minutes)
Azimuth
Elevation
Range (km)
Doppler Factor

Next 0 passes for location: London (51.5072 / 0.1276)

Sorry there are no passes over London.